Regional Weather Roundup
Issued by NWS

Home | Current Version | Previous Version | Text Only | Print | Product List | Glossary On
Versions: 1 2 3 4 5 6 7 8 9 10 11 12 13 14 15 16 17 18 19 20 21 22 23 24 25 26 27 28 29 30 31 32 33 34 35 36 37 38 39 40 41 42 43 44 45 46 47 48 49 50
000
ASUS43 KDMX 260407
RWRIA

WEATHER ROUNDUP FOR IOWA
NATIONAL WEATHER SERVICE DES MOINES IA
1100 PM CDT FRI JUL 25 2014

NOTE: "FAIR" INDICATES FEW OR NO CLOUDS BELOW 12,000 FEET WITH NO
SIGNIFICANT WEATHER AND/OR OBSTRUCTIONS TO VISIBILITY.

* - THESE STATIONS ARE NOT NWS STATIONS...THUS NOT UNDER NWS
QUALITY CONTROL.  THEY ALSO DO NOT REPORT WEATHER SUCH
AS PRECIPITATION OR FOG.

IAZ001>003-012>014-020>022-031>034-043>046-260500-
   NORTHWEST IOWA

CITY           SKY/WX    TMP DP  RH WIND       PRES   REMARKS
CARROLL *      CLOUDY    72  70  94 CALM      29.81S
CHEROKEE *     CLOUDY    75  73  94 CALM      29.83S
DENISON *      CLOUDY    75  75 100 E5        29.80R
LE MARS *      PTCLDY    75  72  88 NW5       29.83R
ORANGE CITY *  CLOUDY    77  72  83 CALM      29.84R
SHELDON *      MOCLDY    70  70 100 CALM      29.83R
SIOUX CITY     MOCLDY    78  73  84 E5        29.80S HX  81
SPENCER        PTCLDY    73  69  87 S5        29.83R
STORM LAKE *   CLOUDY    73  73 100 CALM      29.85R
$$

IAZ055>058-069>071-079>083-090>094-260500-
   SOUTHWEST IOWA

CITY           SKY/WX    TMP DP  RH WIND       PRES   REMARKS
ATLANTIC *     MOCLDY    73  72  94 N3        29.79R
AUDUBON *      CLEAR     73  72  94 CALM      29.82S
CLARINDA *     CLEAR     77  73  88 CALM      29.77S
COUNCIL BLFS *   N/A     75  75 100 NE5       29.78S
CRESTON *      CLEAR     72  70  94 E7        29.79S
HARLAN  *      PTCLDY    73  73 100 NE3       29.84R
LAMONI         PTCLDY    75  71  87 SE5       29.78R
RED OAK *      CLEAR     75  73  94 NE6       29.78R
SHENANDOAH *   CLEAR     77  75  94 NE6       29.77R
$$

IAZ047>049-059>061-072>074-084-260500-
   CENTRAL IOWA

CITY           SKY/WX    TMP DP  RH WIND       PRES   REMARKS
AMES           CLOUDY    73  70  90 E5        29.82R
ANKENY *       MOCLDY    75  72  88 VRB5      29.80R
CHARITON *     CLEAR     73  70  88 SE8       29.79S
DES MOINES     PTCLDY    76  70  82 E8        29.79R
GRINNELL*      MOCLDY    72  68  88 E7        29.83R
KNOXVILLE *    CLEAR     72  70  94 E7        29.79R
MARSHALLTOWN   CLOUDY    74  70  87 SE8       29.82R
PELLA *        CLEAR     72  68  88 SE6       29.81S
PERRY *        CLOUDY    73  72  94 NE3       29.81S
$$

IAZ004>006-015-016-023>025-035-036-260500-
   NORTH CENTRAL IOWA

CITY           SKY/WX    TMP DP  RH WIND       PRES   REMARKS
ALGONA *       CLOUDY    75  72  88 SW3       29.84R
CLARION *      CLOUDY    73  72  94 CALM      29.83S
ESTHERVILLE    PTCLDY    71  69  93 S3        29.83R
FORT DODGE *   CLOUDY    72  70  94 SE3       29.83S
MASON CITY     CLOUDY    73  70  90 CALM      29.85R
FOREST CITY *  CLOUDY    73  72  94 CALM      29.84R
IOWA FALLS *   MOCLDY    70  68  94 CALM      29.84S
$$

IAZ007>011-017>019-026>030-037>042-050>054-066-260500-
   NORTHEAST IOWA

CITY           SKY/WX    TMP DP  RH WIND       PRES   REMARKS
CEDAR RAPIDS   CLOUDY    71  64  78 SE9       29.84R
CHARLES CITY * CLOUDY    72  68  88 SE10      29.84R
CLINTON *      CLOUDY    66  63  88 SE12      29.91S
DECORAH *      CLOUDY    68  66  94 S9        29.85R
DUBUQUE        CLOUDY    65  63  93 SE10      29.88S
MONTICELLO *   CLOUDY    66  64  94 SE10G17   29.86S
OELWEIN *      CLOUDY    70  66  88 SE10G17   29.85S
WATERLOO       CLOUDY    72  67  84 SE8       29.82R
$$

IAZ064-065-067-068-078-260500-
   EAST CENTRAL IOWA

CITY           SKY/WX    TMP DP  RH WIND       PRES   REMARKS
DAVENPORT      CLOUDY    69  62  78 SE13      29.88S
IOWA CITY      CLOUDY    71  65  81 SE8       29.85S
MT. PLEASANT * MOCLDY    72  61  68 SE8       29.84S
MUSCATINE *    CLOUDY    72  63  73 SE10      29.86R
QUAD CITIES    CLOUDY    69  63  81 SE10      29.88R
$$

IAZ062-063-075>077-085>089-095>099-260500-
   SOUTHEAST IOWA

CITY           SKY/WX    TMP DP  RH WIND       PRES   REMARKS
BURLINGTON     MOCLDY    71  62  73 SE10      29.85S
FAIRFIELD *    CLOUDY    72  66  83 SE8       29.83R
FORT MADISON * MOCLDY    72  63  73 SE6       29.86R
KEOKUK *       MOCLDY    72  64  78 SE9       29.83S
OSKALOOSA *    CLOUDY    72  70  94 SE8       29.82S
CENTERVILLE *  CLEAR     72  70  94 SE7       29.82R
OTTUMWA        CLOUDY    72  68  87 SE7       29.81R
WASHINGTON *   MOCLDY    70  64  83 SE8       29.84R
$$

ABBREVIATIONS USED IN REMARKS
   TC - TEMPERATURES IN CELSIUS
  WCI - WIND CHILL INDEX
   HX - HEAT INDEX
  VSB - VISIBILITY
$$



USA.gov is the U.S. government's official web portal to all federal, state and local government web resources and services.